Zurück zum Katalog

STARLINK-4784

AktivKommunikationVLEO
NORAD 53839·PAYLOAD·🇺🇸 United States

Gestartet Sep 19, 2022 von Cape Canaveral Space Force Station

Loading…

Nächste Überflüge (nächste 24 Stunden)

TLE

AktuellSource: CelesTrak SupGP

Epoche: Sep 14, 2026, 22:03 UTC

1 53839C 22114X   26257.91923611 -.00029402  00000+0 -18442-2 0  2578
2 53839  53.1587 164.2546 0001963  92.9850 328.8316 15.08841627    13

Verfolge STARLINK-4784 in Echtzeit mit AllMySat

Download on the App Store